Weather in Tabuny

Russia / Altai Krai     52°46′29″N   78°47′06″E
temp.,
°C
wind,
m/s
gust,
m/s
humid.,
%
clouds,
%
prec.,
mm/h
press.,
hPa
HPBL,
m
5 december, sun
sun501:00−5ssw3597100 0.1 1032133
04:00−7ssw3597100 0.0 103194
07:00−3s3796100 0.1 1029196
10:00−2ssw4794100 0.0 1028207
13:000s5892100 0.0 1027212
16:00−2ssw3693100 0.0 102682
19:00−5ssw3692100 0.0 102666
22:00−5s3790100 0.0 102594
6 december, mon
mon601:00−4s4890100 0.0 1023139
04:00−4s3788100 0.0 1022132
07:00−4s3886100 0.0 1021168
10:00−5s4789100 0.0 1020129
13:00−3ssw3791100 0.0 1020160
16:00−3sw4889100 0.0 1019201
19:00−3ssw41086100 0.0 1019216
22:00−1ssw4999100 1.6 1018395
7 december, tue
tue701:000sw61099100 3.6 1017587
04:000wsw51298100 1.0 1017677
07:00−2wsw71288100 1.1 1018509
10:00−4w61194100 0.2 1021410
13:00−5wnw71187100 0.3 1024715
16:00−7wnw798973 0.1 1027635
19:00−15wnw499515 0.1 1032148
22:00−20w34995 0.0 103638
8 december, wed
wed801:00−23wnw221005 0.0 103812
04:00−24w221006 0.0 10399
07:00−24wnw111005 0.0 10399
10:00−25sw1110014 0.0 10409
13:00−19wnw12945 0.0 104056
16:00−19nw22965 0.0 104011
19:00−23wnw221005 0.0 10419
22:00−24w2210013 0.0 104211
9 december, thu
thu901:00−25w2210036 0.0 104318
04:00−25wsw2210051 0.0 104418
07:00−25wsw2210043 0.0 104521
10:00−25sw221005 0.0 104733
13:00−20sw24945 0.0 1047118
16:00−19sw34925 0.0 104777
19:00−20ssw369510 0.0 104760
22:00−18ssw479268 0.0 1046110